Location: Caltech
(34.1382°N, 118.1253°W)
Time: 20:15:30
(UTC-07:00)

Iridium 62 - Visible Passes

Search period start: 19 April 2014 00:00
Search period end: 29 April 2014 00:00
Orbit: 776 x 779 km, 86.4° (Epoch: 19 April)

Date Brightness Start Highest point End Pass type
(mag) Time Alt. Az. Time Alt. Az. Time Alt. Az.
19 Apr 5.8 21:43:58 10° N 21:48:42 71° NNE 21:48:42 71° NNE visible
20 Apr 6.3 21:10:44 10° NNE 21:15:37 40° E 21:15:40 40° E visible
20 Apr 8.0 22:52:27 10° NW 22:55:57 19° W 22:56:10 18° W visible
21 Apr 7.1 20:38:02 10° NNE 20:41:55 21° E 20:42:40 20° E visible
21 Apr 7.1 22:17:58 10° NNW 22:22:40 35° W 22:23:10 34° W visible
22 Apr 7.7 20:07:12 10° ENE 20:08:05 10° ENE 20:08:58 10° E visible
22 Apr 6.0 21:44:05 10° N 21:49:16 70° W 21:50:11 57° SW visible
23 Apr 5.8 21:10:36 10° N 21:15:45 60° E 21:17:14 43° SE visible
23 Apr 8.5 22:53:52 10° WNW 22:55:50 12° W 22:57:45 10° W visible
24 Apr 6.6 20:37:32 10° NNE 20:42:08 31° E 20:44:19 23° ESE visible
24 Apr 7.8 22:18:32 10° NNW 22:22:37 24° W 22:24:49 18° WSW visible
25 Apr 7.4 20:05:11 10° NE 20:08:22 16° ENE 20:11:25 10° ESE visible
25 Apr 6.7 21:44:20 10° NNW 21:49:18 46° W 21:51:55 25° SW visible
26 Apr 5.7 21:10:37 10° N 21:15:51 90° E 21:19:03 24° S visible
27 Apr 6.1 20:37:17 10° NNE 20:42:17 46° E 20:46:13 16° SSE visible
27 Apr 8.4 22:19:26 10° NW 22:22:32 16° W 22:25:37 10° WSW visible
28 Apr 7.0 20:04:26 10° NNE 20:08:36 24° E 20:12:45 10° SE visible
28 Apr 7.5 21:44:44 10° NNW 21:49:16 31° W 21:53:46 10° SW visible
